map of TEE home
Great Circle Mapper logo
TEE - Airport
Location
City:  Tbessa, Tébessa, Algeria
Name:Cheikh Larbi Tébessi
ICAO:DABS
IATA:TEE

Details
Type:Airport (Aerodrome, Airfield)
Latitude:35°25'57"N (35.432500)
Longitude:8°07'32"E (8.125556)
Elevation:2661 ft (811 m)
Variation:1.83°E (WMM2015 magnetic declination)
0.10° annual change
Runways:2
Longest:9843 × 148 ft (3000 × 45 m)

Time
Time Zone:UTC+1
Local Time:

Weather
METAR:DABS 271430Z 34004KT 9999 FEW033TCU SCT040 33/11 Q1022
TAF:DABS 270500Z 2706/2806 20012KT 9999 FEW030 SCT200 PROB30
TEMPO 2708/2712 33013KT FEW026TCU SCT100 PROB40
TEMPO 2712/2718 34014KT 7000 -TSRA FEW023CB BKN040
BECMG 2721/2723 05013KT

Related Locations
Nearby:
Farthest:GIS: 11838 mi / 19052 km
Gisborne, NZ

Find:

   beyond  
but within

Other Information
Maps:
NOTAMs:
Links:
Sources:

  
flag of Algeria   

Sectional Chart

Flight Planning
at skyvector.com

Satellite Image

Google Maps Satellite view

 

Copyright © 2004-2016 Karl L. Swartz. All rights reserved.
The Great Circle Mapper name and logo are trademarks of the Great Circle Mapper.
All other trademarks mentioned herein belong to their respective owners.
Please see credits for attibutions and further copyright information.

  Follow gcmap on Facebook Follow gcmap on Twitter Follow gcmap on Google+ GCmap on LinkedIn

hCard Microformat

Geo Microformat